Weather in Shadrinsk

Russia / Kurgan Oblast     56°05′13″N   63°37′47″E
temp.,
°C
wind,
m/s
gust,
m/s
humid.,
%
clouds,
%
prec.,
mm/h
press.,
hPa
HPBL,
m
17 may, mon
mon1723:00+22wsw6134242 0.0 1017242
02:00+19w4114712 0.0 1017166
05:00+18w46515 0.0 101884
08:00+24w58425 0.0 1018289
11:00+29w69296 0.0 10172133
14:00+31w7112391 0.0 10163699
17:00+30w811250 0.0 10142246
20:00+25wsw41040100 0.0 1014193
18 may, tue
tue1823:00+20n71459100 0.6 1016398
02:00+17sw357983 0.3 101567
05:00+18wsw3771100 0.4 1014129
08:00+21wnw586599 0.0 1014436
11:00+25nw68432 0.0 10131882
14:00+26nnw783724 0.0 10142699
17:00+22n8105020 0.4 10151225
20:00+16nne812695 0.0 1018822
19 may, wed
wed1923:00+13nne71071100 0.0 1020999
02:00+11nne6107215 0.0 1021719
05:00+9nne512815 0.0 1023467
08:00+13ne58600 0.0 1024850
11:00+16ne56425 0.0 10241453
14:00+19ne45345 0.0 10241691
17:00+20nne4531100 0.0 10231831
20:00+17n22465 0.0 102318
20 may, thu
thu2023:00+13nne22575 0.0 102420
02:00+11se11619 0.0 102410
05:00+11ssw22645 0.0 102511
08:00+17w234813 0.0 1025346
11:00+21wnw33365 0.0 10251506
14:00+23w44310 0.0 10231736
17:00+24w45300 0.0 10221746
20:00+20wsw33450 0.0 102135
21 may, fri
fri2123:00+17sw46470 0.0 102178
02:00+14wsw48530 0.0 1021109
05:00+13w47590 0.0 1022104
08:00+19wnw35480 0.0 1022283
11:00+25wnw44340 0.0 10211102
14:00+27w45270 0.0 10201998
17:00+28wnw45250 0.0 10192117
20:00+23w22395 0.0 101911